Location: Soapstone Prairie Natural Area
(40.9437°N, 105.0829°W)
Time: 03:58:34
(UTC-07:00)

ISS - Visible Passes

Search period start: 17 January 2018 00:00
Search period end: 27 January 2018 00:00
Orbit: 401 x 406 km, 51.6° (Epoch: 17 January)

Date Brightness Start Highest point End Pass type
(mag) Time Alt. Az. Time Alt. Az. Time Alt. Az.
17 Jan -1.2 05:03:14 17° SE 05:03:14 17° SE 05:04:07 10° SE visible
23 Jan -0.8 19:35:01 10° SW 19:35:23 13° SW 19:35:23 13° SW visible
24 Jan -3.0 18:42:47 10° SSW 18:45:28 35° SSE 18:45:28 35° SSE visible
25 Jan -2.1 17:51:03 10° S 17:53:26 19° SE 17:55:28 12° E visible
25 Jan -1.6 19:26:30 10° WSW 19:28:08 25° W 19:28:08 25° W visible
26 Jan -3.9 18:33:51 10° SW 18:37:06 88° NW 18:38:02 44° NE visible
